This demonstration page uses our WeatherBlox Daily Observations layout. Learn more.

Left ArrowRight Arrow

Hourly Observations for November 26, 2019

Temp ( °F °C ) Dew Point ( °F °C ) Humidity (%) Winds ( mph kmh ) Pressure ( in mb ) Visibility ( mi km ) Precip ( " mm )
12:53 am 00:53 Clear 36 2.2 22 -5.6 57 57 VRB 5 7 30.10 1019 10 16 0.00 0.00
1:53 am 01:53 Clear 33 0.6 21 -6.1 61 61 W 6 9 30.09 1019 10 16 0.00 0.00
2:53 am 02:53 Clear 33 0.6 22 -5.6 64 64 NNW 3 6 30.09 1019 10 16 0.00 0.00
3:53 am 03:53 Clear 33 0.6 22 -5.6 64 64 Calm 30.08 1019 10 16 0.00 0.00
4:53 am 04:53 Clear 33 0.6 23 -5 66 66 NW 5 7 30.07 1018 10 16 0.00 0.00
5:53 am 05:53 Mostly Cloudy 35 1.7 24 -4.4 64 64 NNW 5 7 30.05 1018 10 16 0.00 0.00
6:53 am 06:53 Clear 35 1.7 25 -3.9 67 67 Calm 30.01 1016 10 16 0.00 0.00
7:53 am 07:53 Cloudy 37 2.8 26 -3.3 65 65 W 6 9 29.98 1015 10 16 0.00 0.00
8:53 am 08:53 Cloudy 39 3.9 28 -2.2 65 65 Calm 29.94 1014 10 16 0.00 0.00
9:53 am 09:53 Cloudy 41 5 28 -2.2 60 60 E 3 6 29.92 1013 10 16 0.00 0.00
10:53 am 10:53 Cloudy 42 5.6 28 -2.2 58 58 SSW 8 13 29.91 1013 10 16 0.00 0.00
11:25 am 11:25 Cloudy with Light Rain 42 5.6 33 0.6 71 71 S 12 19 29.90 1012 6 10 0.00 0.00
11:53 am 11:53 Cloudy with Light Rain 41 5 35 1.7 79 79 S 12 19 29.85 1011 7 11 0.02 0.51
12:53 pm 12:53 Cloudy with Light Rain 40 4.4 35 1.7 83 83 S 7 11 29.77 1008 6 10 0.05 1.27
1:53 pm 13:53 Cloudy with Light Rain 40 4.4 36 2.2 86 86 VRB 3 6 29.70 1006 4 6 0.08 2.03
2:25 pm 14:25 Cloudy 41 5 36 2.2 82 82 SSE 10 17 29.65 1004 10 16 0.00 0.00
2:53 pm 14:53 Cloudy 43 6.1 34 1.1 71 71 S 20 31 29.58 1002 8 13 0.00 0.00
3:12 pm 15:12 Cloudy with Rain 40 4.4 34 1.1 79 79 SSE 40 65 29.56 1001 3 4 0.01 0.25
3:33 pm 15:33 Cloudy with Light Rain 40 4.4 35 1.7 83 83 S 35 56 29.54 1000 4 6 0.04 1.02
3:53 pm 15:53 Windy with Snow Likely 38 3.3 35 1.7 89 89 S 31 50 29.50 999 3 5 0.07 1.78
4:00 pm 16:00 Windy with Snow Likely 38 3.3 35 1.7 89 89 S 33 54 29.51 999 3 4 0.01 0.25
4:19 pm 16:19 Cloudy with Rain 38 3.3 35 1.7 89 89 S 29 46 29.51 999 3 5 0.06 1.52
4:28 pm 16:28 Cloudy with Heavy Rain 37 2.8 35 1.7 93 93 S 28 44 29.50 999 2 3 0.11 2.79
4:53 pm 16:53 Cloudy with Rain 36 2.2 34 1.1 93 93 S 25 41 29.50 999 3 4 0.24 6.10
5:07 pm 17:07 Windy with Snow Likely 35 1.7 32 0 89 89 S 23 37 29.50 999 2 3 0.06 1.52
5:34 pm 17:34 Windy with Snow Likely 35 1.7 32 0 89 89 S 21 33 29.46 998 3 4 0.15 3.81
5:53 pm 17:53 Cloudy with Light Snow 35 1.7 32 0 89 89 S 18 30 29.43 997 3 5 0.19 4.83
6:53 pm 18:53 Windy with Snow Likely 36 2.2 33 0.6 89 89 S 32 52 29.35 994 8 13 0.02 0.51
7:53 pm 19:53 Cloudy with Light Rain 37 2.8 35 1.7 93 93 S 38 61 29.27 991 7 11 0.02 0.51
8:53 pm 20:53 Cloudy with Light Rain 39 3.9 37 2.8 93 93 S 37 59 29.26 991 6 10 0.02 0.51
9:53 pm 21:53 Cloudy 42 5.6 38 3.3 85 85 S 36 57 29.23 990 10 16 0.03 0.76
10:53 pm 22:53 Cloudy 43 6.1 39 3.9 86 86 S 33 54 29.20 989 10 16 0.00 0.00
11:53 pm 23:53 Cloudy 44 6.7 39 3.9 83 83 S 40 65 29.20 989 10 16 0.00 0.00

Powered by AerisWeather